Theta_e
318 319 320 321 322 320 318 317 316 315 314 314 315 316 317 318 318 311 302 307 311 321 317 305 304 304 306 304 309 306 297 295 296 299 300 304 301 302 303 299 298 299 297 300 302
316 317 317 319 320 322 318 317 316 315 314 314 314 316 317 317 309 305 315 319 322 321 303 301 300 302 300 303 305 300 296 298 301 301 302 304 303 302 299 297 295 296 299 302 302
314 314 315 316 316 321 320 318 316 315 315 315 316 317 318 315 303 301 318 321 322 317 307 303 301 302 299 302 301 299 296 301 303 305 307 303 301 303 299 295 296 296 297 299 299
313 313 313 314 314 317 322 318 317 316 315 315 315 316 317 309 289 307 323 322 320 309 305 300 299 297 297 298 302 297 299 302 304 305 305 302 303 300 299 298 302 300 300 299 298
313 313 313 313 315 315 320 320 318 317 315 315 315 316 310 299 300 313 320 318 308 305 301 299 296 298 296 299 300 298 297 301 303 304 303 305 301 300 296 298 300 300 300 298 298
313 312 313 313 314 318 319 319 319 317 315 315 315 316 303 292 304 311 309 306 306 302 299 299 298 300 298 298 298 298 300 300 302 301 302 302 298 300 296 298 298 299 298 298 299
312 312 312 312 314 318 319 320 319 316 315 315 317 311 299 296 303 307 307 304 304 303 298 301 302 301 300 298 300 299 295 296 298 299 298 298 295 296 298 299 298 297 297 298 299
312 312 311 312 315 318 320 320 318 316 316 317 317 305 292 303 301 304 305 302 304 304 303 304 304 303 300 299 298 295 294 289 295 298 294 295 290 296 298 297 296 296 295 297 298
312 311 311 312 317 318 320 318 318 317 317 318 306 299 290 306 298 302 302 300 302 302 302 304 304 299 299 294 290 291 286 289 291 296 293 292 291 293 296 296 295 294 295 296 296
312 310 310 313 318 319 319 318 317 317 315 314 309 291 293 292 299 300 300 302 299 299 299 298 297 292 292 290 284 287 287 289 289 293 292 289 290 293 294 294 294 294 294 295 296
311 310 310 314 319 319 316 312 304 301 307 293 293 292 294 297 300 297 300 298 298 294 287 293 289 286 289 292 292 292 290 288 287 290 291 290 290 293 294 292 291 291 293 296 297
311 309 309 313 318 318 313 303 301 301 297 304 303 297 298 298 293 295 300 293 292 287 289 288 284 290 293 293 292 289 287 285 287 289 289 286 288 291 293 293 293 294 293 296 296
311 309 310 313 316 314 309 305 306 303 292 299 302 296 295 297 292 292 297 294 289 286 287 285 288 293 291 289 290 288 287 286 286 286 285 283 283 285 289 291 292 294 296 296 297
311 309 310 313 309 309 305 307 309 307 288 291 295 298 296 297 290 297 298 294 289 287 287 287 290 289 288 288 290 286 291 290 288 284 280 284 276 282 287 288 290 293 292 295 297
311 309 311 314 306 304 307 307 308 305 278 293 294 301 297 291 292 292 296 293 287 287 288 285 285 287 287 288 292 288 291 290 288 284 282 280 277 281 284 286 288 290 293 295 296
311 310 310 308 305 304 308 307 304 286 276 284 291 289 289 291 291 293 293 294 293 289 288 286 289 288 289 289 291 291 288 287 285 283 275 282 279 278 284 287 287 289 291 295 293
311 310 307 306 301 308 309 302 285 278 287 282 285 289 287 287 288 289 288 286 283 280 279 283 284 287 289 287 289 288 284 276 274 274 276 281 278 284 288 290 289 289 290 291 295
310 309 306 304 308 308 306 291 279 278 285 290 289 288 284 288 287 288 286 282 286 284 278 277 277 285 288 287 285 286 284 278 271 274 277 279 277 284 291 291 290 291 291 290 292
310 304 297 299 305 307 297 283 279 281 290 287 287 283 283 286 286 286 285 283 286 286 281 278 279 286 287 288 289 285 282 287 280 271 276 278 282 287 291 290 289 290 290 289 291
303 299 296 302 304 303 289 285 282 293 292 290 282 284 278 282 282 283 283 287 287 288 287 285 278 284 286 287 287 285 288 280 279 270 272 277 278 283 288 289 288 288 290 290 289
299 292 298 304 304 292 284 284 287 293 295 289 286 284 284 282 283 282 284 288 290 289 289 286 283 280 284 282 283 283 282 283 283 280 277 276 279 286 288 290 290 290 290 291 291
296 285 299 303 287 286 284 286 291 292 297 293 291 288 285 285 283 283 285 287 292 291 286 288 283 277 280 284 286 284 283 284 278 277 278 279 280 288 289 290 291 292 292 290 290
288 286 300 297 280 281 286 287 290 291 292 292 290 290 289 285 280 285 287 291 290 290 288 289 283 272 277 280 283 281 284 285 284 281 278 277 278 288 289 289 292 291 291 292 289
285 282 288 291 286 283 283 285 285 291 290 293 291 290 287 284 286 284 285 289 291 290 295 293 285 279 276 279 282 279 282 284 283 278 279 280 280 286 288 287 289 290 292 292 291
284 284 287 282 283 283 285 285 283 282 291 293 288 289 286 279 283 283 286 286 289 292 290 287 277 282 283 285 284 282 282 282 282 283 280 282 281 285 289 291 293 291 291 292 291
283 283 287 285 286 282 284 281 283 284 285 284 285 291 290 281 284 282 285 283 283 286 286 287 278 281 278 284 285 281 283 284 283 283 284 284 284 289 290 292 290 291 291 292 292
285 287 287 285 284 281 281 283 284 288 288 290 289 291 289 290 292 291 291 291 288 285 282 280 277 275 273 282 284 278 284 284 284 284 286 281 287 289 287 288 291 292 291 292 293
Wind_Speed
6 5 7 8 5 6 3 1 3 5 6 7 9 9 10 10 8 2 3 1 1 1 2 4 1 4 2 3 1 3 4 3 2 7 6 4 3 3 5 7 5 7 2 8 15
5 6 5 6 9 6 4 2 1 4 6 6 7 9 9 9 3 3 2 3 2 2 1 4 4 2 2 3 2 4 2 2 4 4 7 7 6 6 4 4 5 6 8 13 12
3 3 5 5 8 8 5 4 2 2 5 7 7 8 9 5 3 2 4 3 2 0 3 1 3 2 2 2 3 1 2 2 5 4 10 6 5 4 9 2 8 12 13 10 10
4 5 4 4 5 8 6 4 3 2 2 5 8 8 8 1 3 1 2 2 2 1 2 0 1 4 3 4 3 5 4 3 3 5 5 7 7 4 3 5 6 18 17 10 10
5 8 7 6 8 7 9 5 4 4 2 5 8 7 4 1 4 2 1 1 2 1 2 3 2 4 4 4 2 5 2 4 1 7 5 8 5 5 5 6 12 15 13 12 10
5 6 11 10 9 9 8 6 4 4 3 4 7 7 1 3 2 5 2 1 1 2 2 3 1 3 5 2 5 4 5 5 1 4 3 4 2 4 3 8 11 13 12 11 11
5 6 10 13 13 9 7 7 5 3 4 3 6 4 2 8 4 1 3 1 1 1 1 1 0 1 2 4 3 9 5 3 2 3 2 2 2 7 8 8 11 10 9 10 11
4 6 10 13 14 10 10 9 6 4 5 4 4 3 6 1 3 1 2 1 3 2 0 2 3 1 2 2 4 4 5 3 2 6 1 4 7 3 11 12 10 10 9 10 10
6 6 12 13 17 9 10 7 6 6 6 5 1 3 6 1 2 3 0 2 1 2 3 2 2 3 3 6 4 2 3 4 2 8 3 3 5 1 7 9 10 10 10 10 9
8 6 10 13 12 13 13 13 7 5 4 5 5 2 2 3 2 2 0 1 2 4 4 2 3 4 2 4 7 6 3 3 5 6 5 4 8 5 8 9 11 11 10 11 11
10 8 8 12 9 17 13 5 4 3 4 7 4 2 4 1 2 2 2 3 4 1 5 3 5 9 9 6 3 6 3 5 2 4 4 6 7 10 11 8 9 10 11 15 16
12 9 6 9 13 16 6 2 3 1 3 11 5 2 2 4 4 2 2 5 4 5 4 5 10 6 7 5 7 2 1 2 2 1 3 2 11 11 9 12 15 16 13 16 12
14 10 6 7 13 7 6 3 2 2 1 2 5 4 4 4 4 8 7 4 4 5 5 7 5 10 7 4 6 4 3 1 2 2 0 3 10 7 8 9 8 13 12 14 20
15 12 8 2 6 6 6 5 1 1 4 6 7 8 6 4 2 5 8 3 4 9 7 4 4 8 5 7 7 5 4 5 5 4 3 4 7 7 9 9 10 17 13 15 16
17 14 12 13 1 6 6 6 1 1 2 3 6 3 7 6 8 2 1 2 7 5 8 8 1 5 4 4 5 4 3 7 4 4 3 3 1 10 6 8 10 12 17 16 15
20 16 12 5 0 2 7 6 3 2 10 4 4 8 7 5 2 4 4 2 2 5 6 2 1 2 3 3 4 5 7 9 6 4 1 8 8 7 6 7 5 5 11 15 13
22 19 11 5 4 5 7 4 3 5 4 6 7 7 5 7 5 4 8 7 8 7 3 2 3 3 1 7 5 5 7 2 4 3 8 1 4 10 9 11 5 4 9 11 13
24 20 7 3 5 7 5 3 5 7 9 4 6 10 5 7 2 6 10 7 5 5 5 7 2 6 3 6 9 8 8 7 8 5 6 2 7 10 11 8 6 7 5 7 10
24 8 5 3 7 8 7 12 12 8 9 9 8 6 5 6 8 6 10 8 9 9 9 6 4 2 3 3 5 6 6 5 6 2 3 4 8 11 12 11 8 7 3 4 8
9 8 8 8 8 9 9 14 5 6 8 11 7 6 8 10 6 7 11 7 6 11 3 8 5 2 3 1 1 3 3 2 3 3 4 5 5 8 9 3 1 6 9 7 4
7 7 10 12 7 7 6 11 4 6 0 7 7 7 7 10 7 5 14 3 10 14 7 5 6 3 1 6 9 3 4 3 4 6 6 2 7 7 6 1 4 6 8 8 7
8 8 13 14 10 5 15 9 4 8 2 4 4 5 9 9 6 6 9 3 9 13 14 4 6 5 7 2 1 2 3 6 6 4 4 4 9 1 5 3 4 6 6 5 6
8 5 14 15 13 14 4 8 5 6 6 4 5 4 5 8 6 5 7 3 1 10 16 7 1 4 6 6 3 4 4 3 2 2 6 6 6 4 1 2 5 6 4 2 4
2 8 7 11 3 14 21 7 5 3 2 4 3 3 7 7 4 9 5 4 4 3 10 8 5 8 9 5 5 4 4 4 5 6 4 11 5 8 10 7 6 4 4 6 8
3 6 7 16 19 20 23 17 15 9 7 6 2 5 7 6 4 6 4 3 6 4 5 6 4 3 3 6 4 6 4 6 12 9 9 7 9 10 14 16 17 5 5 6 8
4 3 6 16 25 17 21 16 22 7 10 6 8 5 5 7 7 8 9 4 4 3 4 3 1 3 4 4 6 3 6 7 8 8 18 15 28 11 14 17 13 12 4 8 9
2 2 4 17 23 18 21 22 25 17 5 10 11 8 9 5 9 5 8 6 7 7 4 5 6 4 3 2 5 6 19 13 9 8 14 13 21 7 8 11 17 16 9 10 12
Wind_Direction
338 344 339 345 251 247 193 264 324 316 315 326 326 330 332 323 303 235 240 218 197 312 321 284 257 280 326 288 273 47 46 324 21 136 169 153 103 32 65 85 52 353 126 144 141
342 339 335 342 353 255 213 180 312 315 314 322 322 328 330 333 284 259 242 155 86 38 207 187 185 241 333 233 287 95 91 43 320 101 150 147 134 129 99 106 51 43 61 114 124
320 355 342 336 340 329 237 179 216 305 320 319 322 330 330 338 304 218 321 148 124 239 261 285 297 210 196 230 230 201 138 339 1 16 130 124 122 136 132 206 183 174 159 146 143
298 314 331 321 310 322 268 185 187 231 290 306 309 318 324 269 168 316 340 133 164 249 284 56 213 165 192 212 242 103 34 69 2 7 108 134 136 124 149 195 200 160 157 149 162
286 310 318 317 319 304 293 196 194 219 213 295 302 307 337 270 263 168 213 230 226 147 187 169 166 167 198 212 147 105 162 57 19 38 90 112 121 154 129 100 110 135 154 161 169
255 301 310 310 309 287 281 209 208 176 239 279 296 299 265 263 279 143 150 205 242 188 203 188 213 237 263 224 124 116 120 127 79 61 51 110 177 127 206 139 125 149 168 175 178
220 284 297 304 307 286 260 197 176 181 245 240 286 285 272 235 335 141 192 247 355 6 248 190 65 170 307 125 165 136 97 74 142 161 174 91 289 216 158 151 150 167 176 186 190
219 271 289 296 294 264 221 173 158 188 225 241 278 284 240 298 307 312 225 25 325 306 319 332 32 284 97 148 57 129 94 122 251 158 218 112 260 206 169 151 174 180 190 192 203
209 258 286 294 290 243 183 163 163 212 221 241 343 200 272 351 136 216 213 166 172 48 1 350 18 129 46 100 49 324 183 170 165 191 124 169 265 350 184 169 186 194 195 196 198
222 235 282 294 281 179 151 157 200 217 236 228 262 27 211 203 144 156 246 227 133 119 59 95 50 92 51 115 188 182 194 197 189 216 166 187 255 229 213 189 203 199 195 195 196
220 235 274 303 186 148 140 151 137 232 218 186 209 231 119 37 1 214 225 115 105 85 147 213 113 196 198 175 184 136 171 212 82 300 142 227 252 244 225 225 221 215 203 199 201
208 230 251 300 169 164 152 199 215 191 184 225 263 226 142 180 107 187 79 134 131 171 139 58 226 193 169 199 232 267 233 313 55 36 137 290 265 252 235 219 207 209 207 203 193
199 211 219 294 167 168 186 208 227 254 84 155 176 194 194 156 186 192 141 171 141 156 159 156 234 175 181 185 205 211 177 196 167 161 137 8 294 269 271 234 213 221 210 199 192
190 192 196 177 159 171 203 180 331 300 76 205 191 230 148 204 175 172 192 155 179 180 156 197 284 162 162 203 159 208 205 116 122 74 234 87 279 292 263 254 211 216 205 205 195
181 187 190 170 184 173 159 154 32 15 254 140 152 159 145 163 134 223 148 58 157 171 116 221 212 160 166 193 124 187 85 148 134 119 53 287 352 269 263 256 239 216 216 208 192
177 181 184 154 314 252 140 119 72 145 227 167 135 174 144 157 104 115 127 50 153 90 59 136 276 33 135 58 111 143 73 34 38 92 354 215 162 274 235 229 266 214 217 206 188
177 170 167 166 170 158 145 87 127 188 258 205 178 172 180 149 130 166 163 169 149 108 149 56 353 330 75 71 28 89 89 11 346 1 224 39 148 248 273 254 236 233 236 212 195
173 163 194 186 156 138 174 126 196 209 200 147 130 120 182 130 121 173 140 171 255 112 111 144 280 183 182 171 175 178 158 156 199 196 247 13 225 255 245 280 265 249 260 190 184
166 162 140 217 162 159 200 190 203 192 170 130 103 122 217 170 132 147 186 178 201 178 134 137 212 6 50 7 145 220 209 169 107 21 45 210 280 290 277 274 241 237 248 225 198
171 162 179 164 153 170 188 236 235 214 129 140 147 167 169 175 132 156 168 194 196 189 165 188 107 0 307 275 65 147 176 91 4 141 237 276 255 238 288 343 305 248 230 235 193
167 171 161 140 153 200 205 220 203 256 189 142 156 141 172 172 143 190 185 234 181 190 150 156 107 296 86 211 174 177 185 203 136 158 176 261 263 222 253 256 348 278 235 221 205
162 186 163 145 178 202 218 157 222 249 95 207 127 129 160 155 146 180 197 232 181 159 178 194 113 154 199 238 38 56 237 167 143 213 226 155 258 276 86 30 342 319 305 219 199
155 135 171 156 183 195 188 176 225 184 178 169 178 175 153 146 124 161 172 339 151 163 156 176 186 76 355 350 348 207 232 178 134 90 212 166 261 318 137 3 327 345 1 192 196
204 146 164 182 185 178 186 191 181 256 285 157 177 126 114 142 85 177 135 19 359 107 128 110 152 161 181 174 130 172 217 209 166 227 194 230 296 308 304 306 319 280 230 191 184
226 184 182 173 195 188 181 170 179 160 220 191 13 175 133 117 87 134 120 109 26 354 74 113 153 132 118 112 106 165 180 201 222 231 226 250 225 244 273 294 312 260 222 197 201
200 260 168 175 178 176 184 194 188 165 150 189 134 154 104 134 170 160 131 122 174 37 89 22 126 83 341 83 123 205 232 245 232 243 260 269 268 255 280 284 278 291 253 237 232
131 259 297 171 180 179 191 182 192 170 232 146 137 102 87 121 99 85 82 89 136 130 117 101 118 78 267 54 75 319 238 214 215 191 235 242 252 238 245 256 266 270 244 230 225